www.pogodaiklimat.ru

Погода и климат >> Архив погоды >> Россия >> Воронежская область >> Богучар


ПОГОДА в Богучаре

  • Прогноз погоды в Богучаре
  • Монитор погоды в Богучаре

АРХИВ ПОГОДЫ в Богучаре

Время (UTC), дата Ветер
(напр.,м/с)
 
Видим.   Явления Облачность Т
(С)
Тd
(С)
f
(%)
Тe
(С)
Тes
(С)
Комфортность P
(гПа)
Po
(гПа)
Тmin
(С)
Tmax
(С)
R
(мм)
R24
(мм)
S
(см)
18 11.08 СЗ 1 10 км 6/6 1000 м
[Sc]
+19.0 +10.1 56 +21 +21 комфорт 1015.0 1005.2
21 11.08 З 1 10 км 8/8 1000 м
[Sc]
+16.9 +11.6 71 +18 +18 1015.6 1005.7
00 12.08 штиль 0 10 км 4/4 1000 м
[Sc]
+15.7 +11.2 75 +16 +16 1016.0 1006.1
03 12.08 штиль 0 20 км ясно +12.9 +11.2 89 +12 +13 1017.1 1007.0 +12.5
06 12.08 Ю 1 20 км 4/0
[Cc]
+19.2 +11.4 61 +21 +30 комфорт 1017.1 1007.2
09 12.08 С 3 20 км ясно +22.4 +8.7 42 +24 +36 комфорт 1017.3 1007.6
12 12.08 С 3 20 км 3/3 1000 м
[Cu hum]
+24.4 +7.3 33 +25 +30 комфорт 1017.1 1007.4
15 12.08 С 2 20 км ясно +24.2 +5.8 31 +24 +25 комфорт 1017.4 1007.7 +25.4
18 12.08 СЗ 1 10 км ясно +18.8 +9.1 53 +20 +20 1018.3 1008.4
21 12.08 ЮЗ 1 10 км ясно +13.6 +9.9 78 +14 +14 1019.4 1009.3
00 13.08 штиль 0 10 км ясно +11.7 +9.5 86 +11 +11 1019.9 1009.7
03 13.08 штиль 0 20 км ясно +10.4 +8.8 90 +10 +10 1019.9 1009.7 +10.4
06 13.08 Ю 1 20 км ясно +19.8 +13.1 65 +23 +32 комфорт 1019.7 1009.9
09 13.08 СЗ 2 20 км 3/3 1000 м
[Cu hum]
+26.3 +11.9 41 +28 +38 жарко 1018.1 1008.5
12 13.08 З 2 20 км 6/6 1000 м
[Cu med, cong]
+28.1 +12.8 39 +30 +33 жарко 1017.3 1007.8
15 13.08 штиль 0 20 км 8/3 1000 м
[Cu hum Cc]
+28.5 +13.4 39 +30 +31 жарко 1016.3 1006.8 +28.7
18 13.08 штиль 0 10 км 3/0
[Ci]
+21.0 +15.1 69 +24 +24 комфорт 1016.6 1006.8
21 13.08 штиль 0 10 км ясно +17.5 +13.8 79 +17 +17 1016.9 1007.0
00 14.08 ЮЗ 1 10 км ясно +17.0 +13.5 80 +18 +18 1016.4 1006.5
03 14.08 ЮЗ 1 20 км ясно +15.9 +13.2 84 +17 +17 1016.5 1006.6 +15.6
06 14.08 ЮЗ 3 20 км ясно +24.0 +14.6 56 +27 +33 жарко 1016.5 1006.8
09 14.08 З 3 20 км ясно +29.3 +14.1 39 +31 +43 жарко 1015.8 1006.3
12 14.08 ЮЗ 3 20 км ясно +31.3 +15.1 38 +34 +42 душно 1014.6 1005.2
15 14.08 ЮЗ 2 20 км ясно +30.8 +15.3 39 +33 +34 душно 1013.7 1004.3 +31.8
18 14.08 штиль 0 10 км ясно +23.6 +18.0 71 +28 +28 душно 1013.6 1004.0
21 14.08 штиль 0 10 км ясно +20.1 +16.5 80 +23 +23 комфорт 1013.9 1004.1
00 15.08 С 1 10 км ясно +17.7 +15.7 88 +19 +19 1013.7 1003.9
03 15.08 штиль 0 10 км ясно +16.9 +15.5 91 +17 +17 1014.3 1004.4 +16.2
06 15.08 штиль 0 20 км ясно +24.8 +13.8 50 +27 +37 жарко 1014.1 1004.5
09 15.08 ЮВ 3 20 км ясно +30.8 +11.7 31 +31 +43 жарко 1012.4 1003.0
12 15.08 ЮВ 3 20 км ясно +32.2 +11.9 29 +32 +40 жарко 1011.7 1002.3
15 15.08 ЮВ 2 20 км 4/0
[Ci fib]
+31.9 +12.6 31 +33 +34 жарко 1010.7 1001.3 +32.3
18 15.08 СВ 2 10 км 6/0
[Cc]
+26.0 +15.9 54 +29 +29 душно 1010.9 1001.3
21 15.08 штиль 0 10 км 4/0
[Cc]
+22.8 +15.9 65 +27 +27 душно 1010.6 1001.0
00 16.08 В 1 10 км 4/0
[Ac trans]
+21.9 +14.8 64 +25 +25 комфорт 1010.6 1001.0
03 16.08 СВ 2 20 км 8/0
[Ac trans]
+20.3 +13.9 67 +23 +23 комфорт 1010.2 1000.5 +20.3
06 16.08 ЮВ 2 20 км 10/0
[Cc]
+24.5 +11.9 45 +26 +32 жарко 1009.6 1000.0
09 16.08 ЮВ 2 20 км 10/8 1000 м
[Sc As op]
+26.3 +10.0 36 +27 +28 жарко 1008.5 999.0
12 16.08 ЮВ 2 20 км 10/6 1000 м
[Sc Cs]
+27.7 +12.9 40 +29 +32 жарко 1008.0 998.5
15 16.08 Ю 1 20 км 10/0
[Cs]
+26.6 +16.6 54 +30 +31 душно 1007.4 997.9 +27.9
18 16.08 С 1 10 км 10/8 1000 м
[Sc As op]
+23.4 +15.1 60 +28 +28 душно 1007.8 998.2
21 16.08 штиль 0 10 км 8/0
[Ac trans]
+21.1 +14.7 67 +24 +24 комфорт 1007.4 997.8
00 17.08 штиль 0 10 км 8/0
[Ac trans]
+20.8 +15.1 70 +24 +24 комфорт 1007.3 997.6
03 17.08 штиль 0 10 км 8/0
[Ac trans]
+20.6 +16.3 76 +23 +24 комфорт 1007.4 997.7 +20.6
06 17.08 СЗ 1 10 км гроза без осадков {ливн. осадки} 10/8 600 м
[Cb calv Ac As]
+19.9 +19.3 96 +24 +25 комфорт 1008.2 998.5 +19.2
09 17.08 СЗ 1 10 км {ливн. осадки} 10/4 600 м
[Cb calv As trans]
+24.1 +19.3 75 +29 +33 душно 1008.1 998.5
12 17.08 СВ 1 10 км {гроза} 9/6 600 м
[Cb calv Ac As]
+24.7 +20.1 76 +30 +32 очень
душно
1008.0 998.5
15 17.08 Ю 1 20 км 6/0
[Ac lent Ci sp]
+24.6 +18.5 69 +29 +30 душно 1007.7 998.1 +25.3 4
18 17.08 ЮЗ 1 4000 м дымка 6/0
[Ac trans]
+20.8 +19.4 92 +26 +26 душно 1008.9 999.3
21 17.08 штиль 0 4000 м дымка ясно +18.3 +17.5 95 +19 +19 1009.3 999.5
00 18.08 штиль 0 4000 м дымка ясно +17.4 +16.7 96 +17 +17 1010.3 1000.5
03 18.08 штиль 0 1000 м в посл. час туман 6/0
[As op Ci fib]
+16.8 +16.5 98 +17 +17 1010.5 1000.7 +15.9
06 18.08 Ю 1 4000 м дымка {туман} 8/0
[Ac trans]
+21.3 +18.4 84 +26 +30 душно 1011.1 1001.4
09 18.08 ЮВ 2 20 км 8/8 600 м
[Cb calv]
+26.2 +19.1 65 +31 +34 очень
душно
1010.9 1001.3
12 18.08 СВ 2 20 км 10/6 600 м
[Cb calv As op]
+27.0 +19.3 63 +33 +33 очень
душно
1011.0 1001.5
15 18.08 Ю 2 10 км гроза, ливневой дождь 10/8 300 м
[Cb calv As op]
+23.5 +20.4 83 +29 +29 душно 1011.9 1002.3 +28.0 0.3

 

Местоположение метеостанции Богучар (Воронежская область, Россия): широта 49.93 долгота 40.57 высота над уровнем моря 84 м.

В архиве по умолчанию представлена погода в Богучаре за последнюю неделю. Архивные данные за месяц целиком и за предыдущие месяцы, начиная с января 2011 года, Вы можете получить, выбрав интересующий диапазон дат из раскрывающегося списка и нажав кнопку "Ввод!".


*Определитесь, кто Вы:
робот инопланетянин человек

Внимание! Время в таблицах - всемирное. Для получения местного времени необходимо прибавить поправку, которая равна 3 ч.

Смотрите также архив погоды в соседних городах и на ближайших метеорологических станциях:

Погода в Казанской (Ростовская область, Россия) (44 км)
Погода в Павловск (Воронежская область, Россия) (56 км)
Погода в Калаче (Воронежская область, Россия) (64 км)
Погода в Чертково (Ростовская область, Россия) (68 км)
Погода в Беловодске (Луганская область, Украина) (106 км)
Погода в Миллерово (Ростовская область, Россия) (112 км)
Погода в Боковской (Ростовская область, Россия) (120 км)
Погода в Каменной Степи (Воронежская область, Россия) (125 км)
Погода в Урюпинске (Волгоградская область, Россия) (140 км)
Погода в Лисках (Воронежская область, Россия) (141 км)

Пояснения к столбцам:

Ветер - указаны скорость ветра в м/с - средняя за 10 мин, порывы в срок и между сроками (в фигурных скобках) и направление, откуда дует ветер: С - северный, СВ - северо-восточный, В - восточный, ЮВ - юго-восточный, Ю - южный, ЮЗ - юго-западный, З - западный, СЗ - северо-западный.
Видимость - горизонтальная дальность видимости в метрах или километрах. При видимости от 1 до 10 км при отсутствии осадков обычно наблюдается дымка, при ухудшении видимости до 1 км и менее - туман. В сухую погоду видимость может ухудшаться дымом, пылью или мглою.
Явления - указаны атмосферные явления, наблюдавшиеся в срок или в последний час перед сроком; фигурными скобками обозначены явления, наблюдавшиеся между сроками (за 1-3 часа до срока); квадратными скобками обозначены град или гололедные отложения с указанием их диаметра в мм.
Облачность - указаны через наклонную черту общая и нижняя облачность в баллах и высота нижней границы облаков в метрах; квадратными скобками обозначены формы облаков: Ci - перистые, Cs - перисто-слоистые, Cc - перисто-кучевые, Ac - высококучевые, As - высокослоистые, Sc - слоисто-кучевые, Ns - слоисто-дождевые, Cu - кучевые, Cb - кучево-дождевые. Подробнее классификацию облаков см. в Атласе облаков (PDF).
T - Температура воздуха - температура, измеренная на высоте 2 м над землей.
Td - Температура точки росы - температура, при понижении до которой содержащийся в воздухе водяной пар достигнет насыщения.
f - Относительная влажность воздуха - влажноcть воздуха, измеренная на высоте 2 м над землей.
Te - Эффективная температура - температура, которую ощущает одетый по сезону человек в тени. Характеристика душности погоды. При расчете учитывается влияние влажности воздуха и скорости ветра на теплоощущения человека.
Tes - Эффективная температура на солнце - температура, которую ощущает человек, с поправкой на солнечный нагрев. Характеристика знойности погоды. Зависит от высоты солнца над горизонтом, облачности и скорости ветра. Ночью, в пасмурную погоду, а также при ветре 12 м/с и более поправка равна нулю.
P - Атмосферное давление - приведенное к уровню моря атмосферное давление.
Po - Атмосферное давление - измеренное на уровне метеостанции атмосферное давление.
Tmin - Минимальная температура - минимум температуры воздуха на высоте 2 м над землей.
Tmax - Максимальная температура - максимум температуры воздуха на высоте 2 м над землей.
R - Количество осадков - Количество выпавших осадков за период времени, мм. При наведении курсора мыши на число - период времени, за который выпало указанное количество осадков.
R24 - Количество осадков - Количество выпавших осадков за 24 часа, мм.
S - Снежный покров - Высота снежного покрова, см. При наведении курсора мыши на число - состояние снежного покрова и степень покрытия местности в баллах.